Location: *
(35.2348°S, 91.3916°E)
Time: 09:44:31
(UTC+00:00)

Sakura Rocket - Pass Details

Date: 23 October 2019
Orbit: 476 x 1744 km, 28.7° (Epoch: 11 November)

Event Time Altitude Azimuth Distance (km) Brightness Sun altitude
Exits shadow 22:00:34 18° 304° (NW) 1,498 4.4 -12.5°
Maximum altitude 22:02:38 26° 344° (NNW) 1,143 4.1 -12.1°
Drops below altitude 10° 22:05:53 10° 41° (NE) 1,726 5.6 -11.5°
Sets 22:08:11 0° 55° (NE) 2,547 6.7 -11.1°
